| time (UTC) | temp F | wind direction | speed MPH | gust MPH | rain 1hr in | rain 24hr in | rain mn in | humidity % | barometer mb |
| 20260508203037 | 51 | 342 | 3.0 | 9.0 | 0.00 | 0.00 | 0.00 | 55 | 1011.3 |
| 20260508202519 | 51 | 290 | 3.0 | 6.0 | 0.00 | 0.00 | 0.00 | 53 | 1011.3 |
| 20260508202020 | 51 | 194 | 2.0 | 6.0 | 0.00 | 0.00 | 0.00 | 55 | 1011.3 |
| 20260508201535 | 51 | 241 | 3.0 | 6.0 | 0.00 | 0.00 | 0.00 | 53 | 1011.1 |
| 20260508201018 | 51 | 112 | 3.0 | 11.0 | 0.00 | 0.00 | 0.00 | 53 | 1011.0 |
| 20260508200521 | 52 | 347 | 4.0 | 11.0 | 0.00 | 0.00 | 0.00 | 53 | 1011.0 |
| 20260508200043 | 52 | 174 | 5.0 | 11.0 | 0.00 | 0.00 | 0.00 | 50 | 1010.7 |
| 20260508195523 | 52 | 30 | 2.0 | 13.0 | 0.00 | 0.00 | 0.00 | 50 | 1010.5 |
| 20260508195017 | 53 | 153 | 4.0 | 13.0 | 0.00 | 0.00 | 0.00 | 50 | 1010.4 |
| 20260508194537 | 53 | 179 | 4.0 | 10.0 | 0.00 | 0.00 | 0.00 | 49 | 1010.6 |
| 20260508194017 | 53 | 68 | 2.0 | 7.0 | 0.00 | 0.00 | 0.00 | 51 | 1010.5 |
| 20260508193519 | 53 | 187 | 2.0 | 7.0 | 0.00 | 0.00 | 0.00 | 51 | 1010.4 |
| 20260508193111 | 53 | 122 | 3.0 | 12.0 | 0.00 | 0.00 | 0.00 | 50 | 1010.6 |
| 20260508192522 | 53 | 184 | 2.0 | 12.0 | 0.00 | 0.00 | 0.00 | 49 | 1010.4 |
| 20260508192023 | 54 | 180 | 4.0 | 8.0 | 0.00 | 0.00 | 0.00 | 48 | 1010.6 |
| 20260508191537 | 53 | 181 | 4.0 | 7.0 | 0.00 | 0.00 | 0.00 | 51 | 1010.7 |
| 20260508191022 | 52 | 227 | 1.0 | 7.0 | 0.00 | 0.00 | 0.00 | 54 | 1010.6 |
| 20260508190523 | 52 | 121 | 3.0 | 10.0 | 0.00 | 0.00 | 0.00 | 52 | 1010.9 |
| 20260508190038 | 52 | 170 | 2.0 | 10.0 | 0.00 | 0.00 | 0.00 | 54 | 1010.8 |
| 20260508185518 | 52 | 210 | 4.0 | 10.0 | 0.00 | 0.00 | 0.00 | 51 | 1010.9 |
| 20260508185017 | 52 | 168 | 4.0 | 10.0 | 0.00 | 0.00 | 0.00 | 50 | 1010.8 |
| 20260508184544 | 52 | 248 | 3.0 | 9.0 | 0.00 | 0.00 | 0.00 | 50 | 1010.9 |
| 20260508184019 | 53 | 230 | 3.0 | 8.0 | 0.00 | 0.00 | 0.00 | 48 | 1011.0 |
| 20260508183519 | 53 | 165 | 4.0 | 8.0 | 0.00 | 0.00 | 0.00 | 51 | 1011.1 |
| 20260508183040 | 52 | 193 | 4.0 | 7.0 | 0.00 | 0.00 | 0.00 | 55 | 1011.2 |
| 20260508182520 | 51 | 184 | 3.0 | 7.0 | 0.00 | 0.00 | 0.00 | 51 | 1011.2 |
| 20260508182019 | 51 | 154 | 3.0 | 9.0 | 0.00 | 0.00 | 0.00 | 53 | 1011.3 |
| 20260508181536 | 51 | 103 | 3.0 | 11.0 | 0.00 | 0.00 | 0.00 | 54 | 1011.5 |
| 20260508181019 | 51 | 177 | 4.0 | 11.0 | 0.00 | 0.00 | 0.00 | 51 | 1011.7 |
| 20260508180519 | 51 | 214 | 4.0 | 10.0 | 0.00 | 0.00 | 0.00 | 51 | 1011.6 |
| 20260508180037 | 51 | 162 | 3.0 | 10.0 | 0.00 | 0.00 | 0.00 | 53 | 1011.3 |
| 20260508175519 | 51 | 183 | 3.0 | 8.0 | 0.00 | 0.00 | 0.00 | 50 | 1011.5 |
| 20260508175020 | 51 | 147 | 2.0 | 9.0 | 0.00 | 0.00 | 0.00 | 51 | 1011.7 |
| 20260508174552 | 52 | 255 | 3.0 | 10.0 | 0.00 | 0.00 | 0.00 | 50 | 1011.6 |
| 20260508174023 | 52 | 161 | 3.0 | 10.0 | 0.00 | 0.00 | 0.00 | 49 | 1011.3 |
| 20260508173517 | 52 | 195 | 3.0 | 10.0 | 0.00 | 0.00 | 0.00 | 52 | 1011.3 |
| 20260508173037 | 52 | 171 | 1.0 | 7.0 | 0.00 | 0.00 | 0.00 | 52 | 1011.3 |
| 20260508172520 | 51 | 130 | 3.0 | 7.0 | 0.00 | 0.00 | 0.00 | 48 | 1011.2 |
| 20260508172018 | 51 | 157 | 2.0 | 10.0 | 0.00 | 0.00 | 0.00 | 51 | 1011.4 |
| 20260508171546 | 51 | 210 | 2.0 | 10.0 | 0.00 | 0.00 | 0.00 | 50 | 1011.3 |
| 20260508171020 | 51 | 217 | 4.0 | 10.0 | 0.00 | 0.00 | 0.00 | 50 | 1011.3 |
| 20260508170517 | 51 | 204 | 4.0 | 9.0 | 0.00 | 0.00 | 0.00 | 50 | 1011.4 |
| 20260508170040 | 52 | 155 | 4.0 | 9.0 | 0.00 | 0.00 | 0.00 | 49 | 1011.4 |
| 20260508165519 | 51 | 198 | 4.0 | 9.0 | 0.00 | 0.00 | 0.00 | 49 | 1011.5 |
| 20260508165019 | 51 | 304 | 2.0 | 7.0 | 0.00 | 0.00 | 0.00 | 51 | 1011.5 |
| 20260508164539 | 50 | 147 | 2.0 | 7.0 | 0.00 | 0.00 | 0.00 | 49 | 1011.6 |
| 20260508164018 | 50 | 162 | 2.0 | 7.0 | 0.00 | 0.00 | 0.00 | 49 | 1011.5 |
| 20260508163517 | 50 | 173 | 1.0 | 7.0 | 0.00 | 0.00 | 0.00 | 48 | 1011.6 |
| 20260508163037 | 50 | 93 | 2.0 | 7.0 | 0.00 | 0.00 | 0.00 | 50 | 1011.6 |
| 20260508162519 | 49 | 276 | 2.0 | 5.0 | 0.00 | 0.00 | 0.00 | 47 | 1011.6 |
| 20260508162017 | 49 | 195 | 2.0 | 5.0 | 0.00 | 0.00 | 0.00 | 48 | 1011.8 |
| 20260508161541 | 49 | 103 | 1.0 | 3.0 | 0.00 | 0.00 | 0.00 | 48 | 1011.6 |
| 20260508161021 | 49 | 161 | 1.0 | 7.0 | 0.00 | 0.00 | 0.00 | 49 | 1011.6 |
| 20260508160518 | 49 | 318 | 1.0 | 8.0 | 0.00 | 0.00 | 0.00 | 50 | 1011.6 |
| 20260508160037 | 49 | 75 | 3.0 | 8.0 | 0.00 | 0.00 | 0.00 | 46 | 1011.7 |
| 20260508155518 | 49 | 89 | 3.0 | 8.0 | 0.00 | 0.00 | 0.00 | 45 | 1011.7 |
| 20260508155018 | 50 | 268 | 2.0 | 6.0 | 0.00 | 0.00 | 0.00 | 47 | 1011.7 |
| 20260508154532 | 50 | 246 | 2.0 | 6.0 | 0.00 | 0.00 | 0.00 | 47 | 1011.6 |
| 20260508154018 | 51 | 3 | 2.0 | 7.0 | 0.00 | 0.00 | 0.00 | 53 | 1011.6 |
| 20260508153520 | 50 | 319 | 3.0 | 7.0 | 0.00 | 0.00 | 0.00 | 50 | 1011.6 |
| 20260508153038 | 50 | 62 | 2.0 | 4.0 | 0.00 | 0.00 | 0.00 | 51 | 1011.4 |
| 20260508152517 | 50 | 296 | 1.0 | 4.0 | 0.00 | 0.00 | 0.00 | 51 | 1011.6 |
| 20260508152018 | 50 | 75 | 1.0 | 7.0 | 0.00 | 0.00 | 0.00 | 52 | 1011.4 |
| 20260508151543 | 50 | 101 | 1.0 | 7.0 | 0.00 | 0.00 | 0.00 | 51 | 1011.5 |
| 20260508151021 | 50 | 273 | 2.0 | 5.0 | 0.00 | 0.00 | 0.00 | 52 | 1011.3 |
| 20260508150517 | 50 | 305 | 2.0 | 5.0 | 0.00 | 0.00 | 0.00 | 52 | 1011.3 |
| 20260508150038 | 50 | 74 | 1.0 | 6.0 | 0.00 | 0.00 | 0.00 | 55 | 1011.2 |
| 20260508145518 | 50 | 79 | 2.0 | 7.0 | 0.00 | 0.00 | 0.00 | 51 | 1011.0 |
| 20260508145023 | 50 | 141 | 2.0 | 7.0 | 0.00 | 0.00 | 0.00 | 50 | 1011.3 |
| 20260508144537 | 50 | 271 | 4.0 | 7.0 | 0.00 | 0.00 | 0.00 | 51 | 1011.3 |
| 20260508144017 | 49 | 271 | 2.0 | 6.0 | 0.00 | 0.00 | 0.00 | 50 | 1011.1 |
| 20260508143517 | 49 | 182 | 2.0 | 9.0 | 0.00 | 0.00 | 0.00 | 48 | 1011.2 |
| 20260508143035 | 50 | 251 | 4.0 | 9.0 | 0.00 | 0.00 | 0.00 | 48 | 1011.2 |
| 20260508142523 | 50 | 339 | 1.0 | 6.0 | 0.00 | 0.00 | 0.00 | 51 | 1011.3 |
| 20260508142019 | 50 | 52 | 2.0 | 9.0 | 0.00 | 0.00 | 0.00 | 55 | 1011.4 |
| 20260508141536 | 50 | 66 | 3.0 | 9.0 | 0.00 | 0.00 | 0.00 | 52 | 1011.3 |
| 20260508141019 | 50 | 223 | 2.0 | 6.0 | 0.00 | 0.00 | 0.00 | 55 | 1011.4 |
| 20260508140518 | 50 | 160 | 2.0 | 6.0 | 0.00 | 0.00 | 0.00 | 54 | 1011.4 |
| 20260508140039 | 49 | 39 | 3.0 | 6.0 | 0.00 | 0.00 | 0.00 | 56 | 1011.3 |
| 20260508135522 | 49 | 141 | 1.0 | 6.0 | 0.00 | 0.00 | 0.00 | 56 | 1011.5 |
| 20260508135019 | 49 | 336 | 1.0 | 10.0 | 0.00 | 0.00 | 0.00 | 58 | 1011.5 |
| 20260508134533 | 48 | 91 | 2.0 | 10.0 | 0.00 | 0.00 | 0.00 | 58 | 1011.6 |
| 20260508134019 | 48 | 347 | 3.0 | 6.0 | 0.00 | 0.00 | 0.00 | 57 | 1011.6 |
| 20260508133519 | 47 | 233 | 1.0 | 8.0 | 0.00 | 0.00 | 0.00 | 62 | 1011.9 |
| 20260508133057 | 47 | 116 | 3.0 | 8.0 | 0.00 | 0.00 | 0.00 | 60 | 1011.9 |
| 20260508132517 | 46 | 102 | 2.0 | 8.0 | 0.00 | 0.00 | 0.00 | 63 | 1011.7 |
| 20260508132024 | 45 | 39 | 2.0 | 7.0 | 0.00 | 0.00 | 0.00 | 62 | 1012.0 |
| 20260508131537 | 45 | 300 | 2.0 | 7.0 | 0.00 | 0.00 | 0.00 | 65 | 1012.0 |
| 20260508131017 | 44 | 49 | 1.0 | 2.0 | 0.00 | 0.00 | 0.00 | 69 | 1012.0 |
| 20260508130517 | 44 | 34 | 1.0 | 3.0 | 0.00 | 0.00 | 0.00 | 66 | 1012.1 |
| 20260508130035 | 44 | 233 | 1.0 | 4.0 | 0.00 | 0.00 | 0.00 | 66 | 1012.1 |
| 20260508125519 | 44 | 75 | 1.0 | 4.0 | 0.00 | 0.00 | 0.00 | 68 | 1012.0 |
| 20260508125023 | 43 | 112 | 1.0 | 7.0 | 0.00 | 0.00 | 0.00 | 67 | 1012.1 |
| 20260508124537 | 43 | 168 | 3.0 | 7.0 | 0.00 | 0.00 | 0.00 | 66 | 1012.1 |
| 20260508124019 | 44 | 275 | 1.0 | 5.0 | 0.00 | 0.00 | 0.00 | 68 | 1012.0 |
| 20260508123519 | 43 | 200 | 1.0 | 5.0 | 0.00 | 0.00 | 0.00 | 69 | 1011.8 |
| 20260508123039 | 43 | 75 | 2.0 | 8.0 | 0.00 | 0.00 | 0.00 | 70 | 1011.8 |
| 20260508122518 | 43 | 132 | 3.0 | 8.0 | 0.00 | 0.00 | 0.00 | 72 | 1011.9 |
| 20260508122019 | 43 | 167 | 2.0 | 8.0 | 0.00 | 0.00 | 0.00 | 72 | 1011.9 |
| 20260508121538 | 42 | 35 | 1.0 | 4.0 | 0.00 | 0.00 | 0.00 | 77 | 1011.9 |
| 20260508121020 | 42 | 264 | 0.0 | 4.0 | 0.00 | 0.00 | 0.00 | 76 | 1012.0 |
| 20260508120517 | 41 | 202 | 1.0 | 6.0 | 0.00 | 0.00 | 0.00 | 77 | 1012.1 |
| 20260508120042 | 40 | 158 | 1.0 | 6.0 | 0.00 | 0.00 | 0.00 | 79 | 1012.1 |
| 20260508115520 | 39 | 298 | 2.0 | 4.0 | 0.00 | 0.00 | 0.00 | 80 | 1012.3 |
| 20260508115021 | 39 | 36 | 1.0 | 3.0 | 0.00 | 0.00 | 0.00 | 82 | 1012.3 |
| 20260508114536 | 39 | 0 | 0.0 | 2.0 | 0.00 | 0.00 | 0.00 | 82 | 1012.2 |
| 20260508114020 | 38 | 278 | 0.0 | 2.0 | 0.00 | 0.00 | 0.00 | 81 | 1012.3 |
| 20260508113520 | 38 | 0 | 0.0 | 0.0 | 0.00 | 0.00 | 0.00 | 86 | 1012.2 |
| 20260508113039 | 37 | 0 | 0.0 | 0.0 | 0.00 | 0.00 | 0.00 | 89 | 1012.2 |
| 20260508112517 | 37 | 0 | 0.0 | 0.0 | 0.00 | 0.00 | 0.00 | 89 | 1012.2 |
| 20260508112018 | 37 | 0 | 0.0 | 0.0 | 0.00 | 0.00 | 0.00 | 88 | 1012.2 |
| 20260508111534 | 37 | 0 | 0.0 | 0.0 | 0.00 | 0.00 | 0.00 | 89 | 1012.2 |
| 20260508111019 | 36 | 0 | 0.0 | 0.0 | 0.00 | 0.00 | 0.00 | 89 | 1012.2 |
| 20260508110518 | 36 | 0 | 0.0 | 0.0 | 0.00 | 0.00 | 0.00 | 90 | 1012.1 |
| 20260508110038 | 36 | 0 | 0.0 | 0.0 | 0.00 | 0.00 | 0.00 | 90 | 1012.1 |
| 20260508105518 | 35 | 0 | 0.0 | 0.0 | 0.00 | 0.00 | 0.00 | 91 | 1012.1 |
| 20260508105017 | 35 | 0 | 0.0 | 0.0 | 0.00 | 0.00 | 0.00 | 91 | 1012.0 |
| 20260508104536 | 35 | 0 | 0.0 | 0.0 | 0.00 | 0.00 | 0.00 | 91 | 1012.0 |
| 20260508104019 | 34 | 0 | 0.0 | 0.0 | 0.00 | 0.00 | 0.00 | 92 | 1012.0 |
| 20260508103519 | 34 | 0 | 0.0 | 0.0 | 0.00 | 0.00 | 0.00 | 92 | 1011.8 |
| 20260508103037 | 34 | 0 | 0.0 | 0.0 | 0.00 | 0.00 | 0.00 | 92 | 1011.6 |
| 20260508102518 | 34 | 0 | 0.0 | 0.0 | 0.00 | 0.00 | 0.00 | 92 | 1011.6 |
| 20260508102019 | 33 | 0 | 0.0 | 0.0 | 0.00 | 0.00 | 0.00 | 92 | 1011.5 |
| 20260508101543 | 33 | 0 | 0.0 | 0.0 | 0.00 | 0.00 | 0.00 | 92 | 1011.5 |
| 20260508101020 | 33 | 0 | 0.0 | 0.0 | 0.00 | 0.00 | 0.00 | 92 | 1011.3 |
| 20260508100520 | 33 | 0 | 0.0 | 0.0 | 0.00 | 0.00 | 0.00 | 92 | 1011.3 |
| 20260508100034 | 33 | 0 | 0.0 | 0.0 | 0.00 | 0.00 | 0.00 | 92 | 1011.3 |
| 20260508095519 | 32 | 0 | 0.0 | 0.0 | 0.00 | 0.00 | 0.00 | 92 | 1011.2 |
| 20260508095020 | 32 | 0 | 0.0 | 0.0 | 0.00 | 0.00 | 0.00 | 92 | 1011.1 |
| 20260508094533 | 32 | 0 | 0.0 | 0.0 | 0.00 | 0.00 | 0.00 | 92 | 1011.1 |
| 20260508094019 | 32 | 0 | 0.0 | 0.0 | 0.00 | 0.00 | 0.00 | 92 | 1011.0 |
| 20260508093521 | 32 | 0 | 0.0 | 0.0 | 0.00 | 0.00 | 0.00 | 92 | 1010.8 |
| 20260508093038 | 33 | 0 | 0.0 | 0.0 | 0.00 | 0.00 | 0.00 | 92 | 1010.9 |
| 20260508092516 | 32 | 0 | 0.0 | 0.0 | 0.00 | 0.00 | 0.00 | 92 | 1010.9 |
| 20260508092020 | 32 | 0 | 0.0 | 0.0 | 0.00 | 0.00 | 0.00 | 92 | 1011.0 |
| 20260508091603 | 32 | 0 | 0.0 | 0.0 | 0.00 | 0.00 | 0.00 | 92 | 1010.9 |
| 20260508091019 | 32 | 0 | 0.0 | 0.0 | 0.00 | 0.00 | 0.00 | 92 | 1011.0 |
| 20260508090520 | 32 | 0 | 0.0 | 0.0 | 0.00 | 0.00 | 0.00 | 92 | 1010.9 |
| 20260508090038 | 32 | 0 | 0.0 | 0.0 | 0.00 | 0.00 | 0.00 | 92 | 1010.8 |
| 20260508085520 | 32 | 0 | 0.0 | 0.0 | 0.00 | 0.00 | 0.00 | 92 | 1010.9 |
| 20260508085020 | 32 | 0 | 0.0 | 0.0 | 0.00 | 0.00 | 0.00 | 92 | 1010.7 |
| 20260508084533 | 31 | 0 | 0.0 | 0.0 | 0.00 | 0.00 | 0.00 | 92 | 1010.9 |
| 20260508084026 | 31 | 0 | 0.0 | 0.0 | 0.00 | 0.00 | 0.00 | 92 | 1011.0 |
| 20260508083520 | 31 | 0 | 0.0 | 0.0 | 0.00 | 0.00 | 0.00 | 92 | 1011.0 |
| 20260508083038 | 31 | 0 | 0.0 | 1.0 | 0.00 | 0.00 | 0.00 | 92 | 1011.0 |
| 20260508082517 | 31 | 0 | 0.0 | 1.0 | 0.00 | 0.00 | 0.00 | 92 | 1010.9 |
| 20260508082018 | 31 | 0 | 0.0 | 1.0 | 0.00 | 0.00 | 0.00 | 92 | 1010.9 |
| 20260508081545 | 31 | 0 | 0.0 | 2.0 | 0.00 | 0.00 | 0.00 | 92 | 1010.9 |
| 20260508081016 | 31 | 54 | 0.0 | 2.0 | 0.00 | 0.00 | 0.00 | 92 | 1010.9 |
| 20260508080516 | 31 | 0 | 0.0 | 0.0 | 0.00 | 0.00 | 0.00 | 92 | 1010.9 |
| 20260508080032 | 31 | 0 | 0.0 | 0.0 | 0.00 | 0.00 | 0.00 | 92 | 1010.9 |
| 20260508075517 | 32 | 0 | 0.0 | 0.0 | 0.00 | 0.00 | 0.00 | 92 | 1010.8 |
| 20260508075023 | 31 | 0 | 0.0 | 0.0 | 0.00 | 0.00 | 0.00 | 92 | 1010.9 |
| 20260508074537 | 31 | 0 | 0.0 | 0.0 | 0.00 | 0.00 | 0.00 | 92 | 1010.8 |
| 20260508074017 | 31 | 0 | 0.0 | 0.0 | 0.00 | 0.00 | 0.00 | 92 | 1010.8 |
| 20260508073516 | 31 | 0 | 0.0 | 0.0 | 0.00 | 0.00 | 0.00 | 92 | 1010.7 |
| 20260508073037 | 31 | 0 | 0.0 | 0.0 | 0.00 | 0.00 | 0.00 | 92 | 1010.6 |
| 20260508072520 | 31 | 0 | 0.0 | 0.0 | 0.00 | 0.00 | 0.00 | 92 | 1010.6 |
| 20260508072017 | 31 | 0 | 0.0 | 0.0 | 0.00 | 0.00 | 0.00 | 92 | 1010.5 |
| 20260508071536 | 31 | 0 | 0.0 | 0.0 | 0.00 | 0.00 | 0.00 | 92 | 1010.4 |
| 20260508071021 | 31 | 0 | 0.0 | 0.0 | 0.00 | 0.00 | 0.00 | 91 | 1010.4 |
| 20260508070517 | 32 | 0 | 0.0 | 0.0 | 0.00 | 0.00 | 0.00 | 91 | 1010.3 |
| 20260508070035 | 32 | 0 | 0.0 | 0.0 | 0.00 | 0.00 | 0.00 | 91 | 1010.4 |
| 20260508065519 | 32 | 0 | 0.0 | 0.0 | 0.00 | 0.00 | 0.00 | 91 | 1010.3 |
| 20260508065017 | 32 | 0 | 0.0 | 0.0 | 0.00 | 0.00 | 0.00 | 91 | 1010.4 |
| 20260508064538 | 32 | 0 | 0.0 | 0.0 | 0.00 | 0.00 | 0.00 | 91 | 1010.5 |
| 20260508064017 | 32 | 0 | 0.0 | 0.0 | 0.00 | 0.00 | 0.00 | 91 | 1010.4 |
| 20260508063521 | 32 | 0 | 0.0 | 0.0 | 0.00 | 0.00 | 0.00 | 90 | 1010.5 |
| 20260508063110 | 32 | 0 | 0.0 | 0.0 | 0.00 | 0.00 | 0.00 | 90 | 1010.5 |
| 20260508062523 | 32 | 0 | 0.0 | 0.0 | 0.00 | 0.00 | 0.00 | 90 | 1010.4 |
| 20260508062018 | 32 | 0 | 0.0 | 0.0 | 0.00 | 0.00 | 0.00 | 90 | 1010.6 |
| 20260508061537 | 32 | 0 | 0.0 | 0.0 | 0.00 | 0.00 | 0.00 | 90 | 1010.4 |
| 20260508061019 | 32 | 0 | 0.0 | 0.0 | 0.00 | 0.00 | 0.00 | 89 | 1010.7 |
| 20260508060523 | 32 | 0 | 0.0 | 0.0 | 0.00 | 0.00 | 0.00 | 89 | 1010.6 |
| 20260508060037 | 33 | 0 | 0.0 | 0.0 | 0.00 | 0.00 | 0.00 | 89 | 1010.6 |
| 20260508055520 | 33 | 0 | 0.0 | 0.0 | 0.00 | 0.00 | 0.00 | 89 | 1010.8 |
| 20260508055019 | 33 | 0 | 0.0 | 0.0 | 0.00 | 0.00 | 0.00 | 89 | 1010.8 |
| 20260508054541 | 33 | 0 | 0.0 | 0.0 | 0.00 | 0.00 | 0.00 | 89 | 1010.7 |
| 20260508054018 | 33 | 0 | 0.0 | 0.0 | 0.00 | 0.00 | 0.00 | 89 | 1010.7 |
| 20260508053517 | 33 | 0 | 0.0 | 0.0 | 0.00 | 0.00 | 0.00 | 89 | 1010.7 |
| 20260508053050 | 33 | 0 | 0.0 | 0.0 | 0.00 | 0.00 | 0.00 | 89 | 1010.8 |
| 20260508052517 | 33 | 0 | 0.0 | 0.0 | 0.00 | 0.00 | 0.00 | 88 | 1010.7 |
| 20260508052022 | 33 | 0 | 0.0 | 0.0 | 0.00 | 0.00 | 0.00 | 88 | 1010.6 |
| 20260508051557 | 33 | 0 | 0.0 | 0.0 | 0.00 | 0.00 | 0.00 | 87 | 1010.6 |
| 20260508051017 | 33 | 0 | 0.0 | 0.0 | 0.00 | 0.00 | 0.00 | 87 | 1010.6 |
| 20260508050519 | 34 | 0 | 0.0 | 0.0 | 0.00 | 0.00 | 0.00 | 87 | 1010.6 |
| 20260508050035 | 34 | 0 | 0.0 | 0.0 | 0.00 | 0.00 | 0.00 | 86 | 1010.6 |
| 20260508045516 | 34 | 0 | 0.0 | 0.0 | 0.00 | 0.00 | 0.00 | 86 | 1010.8 |
| 20260508045020 | 34 | 0 | 0.0 | 0.0 | 0.00 | 0.00 | 0.00 | 86 | 1010.6 |
| 20260508044537 | 34 | 0 | 0.0 | 0.0 | 0.00 | 0.00 | 0.00 | 85 | 1010.7 |
| 20260508044018 | 34 | 0 | 0.0 | 0.0 | 0.00 | 0.00 | 0.00 | 85 | 1010.7 |
| 20260508043521 | 35 | 0 | 0.0 | 0.0 | 0.00 | 0.00 | 0.00 | 85 | 1010.7 |
| 20260508043036 | 35 | 0 | 0.0 | 0.0 | 0.00 | 0.00 | 0.00 | 85 | 1010.8 |
| 20260508042517 | 35 | 0 | 0.0 | 0.0 | 0.00 | 0.00 | 0.00 | 84 | 1010.8 |
| 20260508042024 | 35 | 0 | 0.0 | 0.0 | 0.00 | 0.00 | 0.00 | 84 | 1010.9 |
| 20260508041536 | 35 | 0 | 0.0 | 0.0 | 0.00 | 0.00 | 0.00 | 84 | 1010.9 |
| 20260508041019 | 35 | 0 | 0.0 | 0.0 | 0.00 | 0.00 | 0.00 | 83 | 1010.8 |
| 20260508040518 | 35 | 0 | 0.0 | 0.0 | 0.00 | 0.00 | 0.00 | 83 | 1010.9 |
| 20260508040035 | 36 | 0 | 0.0 | 0.0 | 0.00 | 0.00 | 0.00 | 83 | 1010.9 |
| 20260508035518 | 36 | 0 | 0.0 | 0.0 | 0.00 | 0.00 | 0.00 | 82 | 1010.9 |
| 20260508035018 | 36 | 0 | 0.0 | 1.0 | 0.00 | 0.00 | 0.00 | 83 | 1011.0 |
| 20260508034534 | 36 | 0 | 0.0 | 1.0 | 0.00 | 0.00 | 0.00 | 82 | 1011.0 |
| 20260508034019 | 36 | 0 | 0.0 | 1.0 | 0.00 | 0.00 | 0.00 | 82 | 1011.0 |
| 20260508033520 | 37 | 0 | 0.0 | 1.0 | 0.00 | 0.00 | 0.00 | 82 | 1011.0 |
| 20260508033035 | 37 | 0 | 0.0 | 1.0 | 0.00 | 0.00 | 0.00 | 83 | 1011.0 |
| 20260508032519 | 37 | 0 | 0.0 | 0.0 | 0.00 | 0.00 | 0.00 | 83 | 1011.0 |
| 20260508032019 | 37 | 0 | 0.0 | 0.0 | 0.00 | 0.00 | 0.00 | 82 | 1011.1 |
| 20260508031539 | 37 | 0 | 0.0 | 0.0 | 0.00 | 0.00 | 0.00 | 81 | 1011.0 |
| 20260508031016 | 37 | 0 | 0.0 | 0.0 | 0.00 | 0.00 | 0.00 | 81 | 1011.0 |
| 20260508030516 | 37 | 0 | 0.0 | 0.0 | 0.00 | 0.00 | 0.00 | 80 | 1011.0 |
| 20260508030044 | 38 | 0 | 0.0 | 0.0 | 0.00 | 0.00 | 0.00 | 79 | 1011.0 |
| 20260508025517 | 38 | 0 | 0.0 | 0.0 | 0.00 | 0.01 | 0.00 | 79 | 1011.0 |
| 20260508025019 | 38 | 0 | 0.0 | 0.0 | 0.00 | 0.01 | 0.00 | 78 | 1011.0 |
| 20260508024534 | 38 | 0 | 0.0 | 1.0 | 0.00 | 0.01 | 0.00 | 78 | 1010.9 |
| 20260508024017 | 38 | 0 | 0.0 | 1.0 | 0.00 | 0.01 | 0.00 | 77 | 1011.1 |
| 20260508023520 | 39 | 0 | 0.0 | 1.0 | 0.00 | 0.01 | 0.00 | 79 | 1011.0 |
| 20260508023037 | 39 | 0 | 0.0 | 1.0 | 0.00 | 0.01 | 0.00 | 78 | 1011.0 |
| 20260508022518 | 39 | 0 | 0.0 | 1.0 | 0.00 | 0.01 | 0.00 | 78 | 1011.0 |
| 20260508022019 | 39 | 0 | 0.0 | 1.0 | 0.00 | 0.01 | 0.00 | 78 | 1011.0 |
| 20260508021540 | 39 | 333 | 0.0 | 1.0 | 0.00 | 0.01 | 0.00 | 77 | 1011.0 |
| 20260508021022 | 39 | 0 | 0.0 | 1.0 | 0.00 | 0.01 | 0.00 | 77 | 1010.9 |
| 20260508020515 | 40 | 0 | 0.0 | 1.0 | 0.00 | 0.01 | 0.00 | 77 | 1010.9 |
| 20260508020033 | 40 | 0 | 0.0 | 1.0 | 0.00 | 0.01 | 0.00 | 77 | 1010.9 |
| 20260508015517 | 40 | 0 | 0.0 | 1.0 | 0.00 | 0.05 | 0.00 | 76 | 1010.8 |
| 20260508015018 | 40 | 0 | 0.0 | 1.0 | 0.00 | 0.05 | 0.00 | 76 | 1010.7 |
| 20260508014531 | 40 | 0 | 0.0 | 1.0 | 0.00 | 0.05 | 0.00 | 76 | 1010.7 |
| 20260508014016 | 41 | 333 | 0.0 | 1.0 | 0.00 | 0.05 | 0.00 | 78 | 1010.6 |
| 20260508013518 | 41 | 0 | 0.0 | 1.0 | 0.00 | 0.05 | 0.00 | 78 | 1010.5 |
| 20260508013037 | 41 | 333 | 0.0 | 1.0 | 0.00 | 0.05 | 0.00 | 76 | 1010.4 |
| 20260508012516 | 41 | 332 | 0.0 | 1.0 | 0.00 | 0.05 | 0.00 | 76 | 1010.4 |
| 20260508012019 | 41 | 0 | 0.0 | 1.0 | 0.00 | 0.05 | 0.00 | 75 | 1010.3 |
| 20260508011540 | 42 | 324 | 0.0 | 3.0 | 0.00 | 0.05 | 0.00 | 76 | 1010.3 |
| 20260508011018 | 42 | 328 | 0.0 | 3.0 | 0.00 | 0.05 | 0.00 | 75 | 1010.3 |
| 20260508010519 | 42 | 326 | 1.0 | 3.0 | 0.00 | 0.05 | 0.00 | 75 | 1010.2 |
| 20260508010046 | 42 | 45 | 0.0 | 2.0 | 0.00 | 0.05 | 0.00 | 77 | 1010.1 |
| 20260508005517 | 43 | 46 | 1.0 | 2.0 | 0.00 | 0.08 | 0.00 | 74 | 1010.0 |
| 20260508005017 | 43 | 340 | 0.0 | 2.0 | 0.00 | 0.08 | 0.00 | 74 | 1009.9 |
| 20260508004531 | 44 | 328 | 1.0 | 2.0 | 0.00 | 0.08 | 0.00 | 71 | 1009.8 |
| 20260508004017 | 44 | 34 | 1.0 | 2.0 | 0.00 | 0.08 | 0.00 | 73 | 1009.7 |
| 20260508003517 | 44 | 302 | 0.0 | 2.0 | 0.00 | 0.08 | 0.00 | 70 | 1009.7 |
| 20260508003036 | 45 | 353 | 1.0 | 2.0 | 0.00 | 0.08 | 0.00 | 73 | 1009.5 |
| 20260508002517 | 46 | 148 | 0.0 | 2.0 | 0.00 | 0.08 | 0.00 | 66 | 1009.4 |
| 20260508002019 | 46 | 0 | 0.0 | 3.0 | 0.00 | 0.08 | 0.00 | 68 | 1009.4 |
| 20260508001537 | 47 | 0 | 0.0 | 5.0 | 0.00 | 0.08 | 0.00 | 66 | 1009.4 |
| 20260508001015 | 48 | 4 | 3.0 | 5.0 | 0.00 | 0.08 | 0.00 | 55 | 1009.3 |
| 20260508000516 | 48 | 107 | 1.0 | 5.0 | 0.00 | 0.08 | 0.00 | 54 | 1009.2 |
| 20260508000044 | 48 | 0 | 0.0 | 3.0 | 0.00 | 0.08 | 0.00 | 63 | 1009.3 |
| 20260507235521 | 49 | 53 | 1.0 | 5.0 | 0.00 | 0.10 | 0.00 | 64 | 1009.1 |
| 20260507235020 | 50 | 3 | 1.0 | 5.0 | 0.00 | 0.10 | 0.00 | 46 | 1009.1 |
| 20260507234534 | 49 | 169 | 2.0 | 4.0 | 0.00 | 0.10 | 0.00 | 51 | 1009.1 |
| 20260507234018 | 49 | 79 | 1.0 | 2.0 | 0.00 | 0.10 | 0.00 | 53 | 1009.0 |
| 20260507233516 | 50 | 41 | 0.0 | 5.0 | 0.00 | 0.10 | 0.00 | 55 | 1008.9 |
| 20260507233038 | 50 | 302 | 1.0 | 5.0 | 0.00 | 0.10 | 0.00 | 57 | 1009.0 |
| 20260507232518 | 51 | 65 | 2.0 | 5.0 | 0.00 | 0.10 | 0.00 | 51 | 1008.8 |
| 20260507232021 | 51 | 54 | 1.0 | 12.0 | 0.00 | 0.10 | 0.00 | 51 | 1008.8 |
| 20260507231537 | 52 | 198 | 1.0 | 12.0 | 0.00 | 0.10 | 0.00 | 46 | 1008.9 |
| 20260507231020 | 52 | 145 | 2.0 | 3.0 | 0.00 | 0.10 | 0.00 | 45 | 1008.9 |
| 20260507230520 | 52 | 100 | 2.0 | 3.0 | 0.00 | 0.10 | 0.00 | 46 | 1008.9 |
| 20260507230053 | 52 | 146 | 0.0 | 8.0 | 0.00 | 0.10 | 0.00 | 43 | 1008.8 |
| 20260507225520 | 52 | 158 | 4.0 | 8.0 | 0.00 | 0.11 | 0.00 | 41 | 1008.8 |
| 20260507225020 | 53 | 246 | 0.0 | 3.0 | 0.00 | 0.11 | 0.00 | 45 | 1008.9 |
| 20260507224536 | 53 | 103 | 1.0 | 3.0 | 0.00 | 0.11 | 0.00 | 44 | 1008.8 |
| 20260507224023 | 54 | 127 | 1.0 | 7.0 | 0.00 | 0.11 | 0.00 | 43 | 1008.8 |
| 20260507223527 | 55 | 250 | 2.0 | 7.0 | 0.00 | 0.11 | 0.00 | 41 | 1008.9 |
| 20260507223115 | 55 | 116 | 2.0 | 5.0 | 0.00 | 0.11 | 0.00 | 43 | 1008.9 |
| 20260507222516 | 55 | 89 | 1.0 | 11.0 | 0.00 | 0.11 | 0.00 | 42 | 1009.0 |
| 20260507222019 | 54 | 102 | 3.0 | 14.0 | 0.00 | 0.11 | 0.00 | 41 | 1008.9 |
| 20260507221537 | 54 | 141 | 3.0 | 14.0 | 0.00 | 0.11 | 0.00 | 40 | 1009.2 |
| 20260507221022 | 56 | 199 | 4.0 | 14.0 | 0.00 | 0.11 | 0.00 | 39 | 1009.0 |
| 20260507220517 | 56 | 103 | 1.0 | 6.0 | 0.00 | 0.11 | 0.00 | 45 | 1008.9 |
| 20260507220035 | 56 | 150 | 3.0 | 6.0 | 0.00 | 0.11 | 0.00 | 44 | 1008.8 |
| 20260507215521 | 55 | 97 | 2.0 | 13.0 | 0.00 | 0.15 | 0.00 | 44 | 1008.8 |
| 20260507215020 | 54 | 323 | 2.0 | 13.0 | 0.00 | 0.15 | 0.00 | 43 | 1008.8 |
| 20260507214542 | 55 | 71 | 7.0 | 13.0 | 0.00 | 0.15 | 0.00 | 43 | 1008.9 |
| 20260507214020 | 56 | 133 | 3.0 | 5.0 | 0.00 | 0.15 | 0.00 | 40 | 1008.8 |
| 20260507213521 | 57 | 48 | 2.0 | 5.0 | 0.00 | 0.15 | 0.00 | 39 | 1008.8 |
| 20260507213037 | 57 | 136 | 2.0 | 5.0 | 0.00 | 0.15 | 0.00 | 40 | 1008.8 |
| 20260507212521 | 57 | 271 | 1.0 | 7.0 | 0.00 | 0.15 | 0.00 | 40 | 1008.8 |
| 20260507212020 | 57 | 100 | 2.0 | 7.0 | 0.00 | 0.15 | 0.00 | 39 | 1008.8 |
| 20260507211533 | 57 | 178 | 3.0 | 7.0 | 0.00 | 0.15 | 0.00 | 40 | 1008.7 |
| 20260507211019 | 57 | 252 | 2.0 | 11.0 | 0.00 | 0.15 | 0.00 | 41 | 1008.6 |
| 20260507210520 | 56 | 55 | 2.0 | 11.0 | 0.00 | 0.15 | 0.00 | 42 | 1008.6 |
| 20260507210046 | 56 | 60 | 3.0 | 11.0 | 0.00 | 0.15 | 0.00 | 43 | 1008.6 |
| 20260507205522 | 56 | 220 | 2.0 | 10.0 | 0.00 | 0.29 | 0.00 | 41 | 1008.6 |
| 20260507205019 | 57 | 274 | 3.0 | 10.0 | 0.00 | 0.29 | 0.00 | 45 | 1008.7 |
| 20260507204542 | 56 | 286 | 2.0 | 10.0 | 0.00 | 0.29 | 0.00 | 43 | 1008.7 |
| 20260507204019 | 56 | 248 | 2.0 | 6.0 | 0.00 | 0.29 | 0.00 | 45 | 1008.8 |
| 20260507203521 | 56 | 79 | 2.0 | 9.0 | 0.00 | 0.29 | 0.00 | 46 | 1008.6 |